Time,TemperatureF,DewpointF,PressureIn,WindDirection,WindDirectionDegrees,WindSpeedMPH,WindSpeedGustMPH,Humidity,HourlyPrecipIn,Conditions,Clouds,dailyrainin,SoftwareType,DateUTC
2013-08-28 00:00:00,68.7,68.0,29.86,East,90,0.0,0.0,96,0.00,,,0.00,weatherlink.com 1.10,2013-08-28 04:00:00,
2013-08-28 00:15:00,68.4,67.0,29.86,East,90,0.0,0.0,96,0.00,,,0.00,weatherlink.com 1.10,2013-08-28 04:15:00,
2013-08-28 00:30:00,68.0,67.0,29.86,East,90,0.0,1.0,96,0.00,,,0.00,weatherlink.com 1.10,2013-08-28 04:30:00,
2013-08-28 00:45:00,67.6,67.0,29.86,East,90,0.0,0.0,96,0.00,,,0.00,weatherlink.com 1.10,2013-08-28 04:45:00,
2013-08-28 01:00:00,67.5,66.0,29.85,East,90,0.0,1.0,96,0.00,,,0.00,weatherlink.com 1.10,2013-08-28 05:00:00,
2013-08-28 01:15:00,67.4,67.0,29.85,East,90,0.0,0.0,97,0.00,,,0.00,weatherlink.com 1.10,2013-08-28 05:15:00,
2013-08-28 01:30:00,67.1,66.0,29.84,East,90,0.0,1.0,97,0.00,,,0.00,weatherlink.com 1.10,2013-08-28 05:30:00,
2013-08-28 01:45:00,67.0,66.0,29.84,East,90,0.0,1.0,97,0.00,,,0.00,weatherlink.com 1.10,2013-08-28 05:45:00,
2013-08-28 02:00:00,66.9,66.0,29.84,East,90,0.0,0.0,97,0.00,,,0.00,weatherlink.com 1.10,2013-08-28 06:00:00,
2013-08-28 02:15:00,66.8,66.0,29.84,East,90,0.0,1.0,97,0.00,,,0.00,weatherlink.com 1.10,2013-08-28 06:15:00,
2013-08-28 02:30:00,66.6,66.0,29.84,East,90,0.0,0.0,97,0.00,,,0.00,weatherlink.com 1.10,2013-08-28 06:30:00,
2013-08-28 02:45:00,66.6,66.0,29.83,East,90,0.0,0.0,97,0.00,,,0.00,weatherlink.com 1.10,2013-08-28 06:45:00,
2013-08-28 03:00:00,66.5,66.0,29.83,East,90,0.0,0.0,97,0.00,,,0.00,weatherlink.com 1.10,2013-08-28 07:00:00,
2013-08-28 03:15:00,66.3,66.0,29.83,East,90,0.0,0.0,97,0.00,,,0.00,weatherlink.com 1.10,2013-08-28 07:15:00,
2013-08-28 03:30:00,66.1,65.0,29.83,East,90,0.0,0.0,97,0.00,,,0.00,weatherlink.com 1.10,2013-08-28 07:30:00,
2013-08-28 03:45:00,65.9,65.0,29.83,East,90,0.0,0.0,97,0.00,,,0.00,weatherlink.com 1.10,2013-08-28 07:45:00,
2013-08-28 04:00:00,65.9,65.0,29.83,East,90,0.0,0.0,98,0.00,,,0.00,weatherlink.com 1.10,2013-08-28 08:00:00,
2013-08-28 04:15:00,65.8,65.0,29.83,East,90,0.0,0.0,97,0.00,,,0.00,weatherlink.com 1.10,2013-08-28 08:15:00,
2013-08-28 04:30:00,65.8,65.0,29.83,East,90,0.0,0.0,98,0.00,,,0.00,weatherlink.com 1.10,2013-08-28 08:30:00,
2013-08-28 04:45:00,65.6,65.0,29.82,East,90,0.0,0.0,98,0.00,,,0.00,weatherlink.com 1.10,2013-08-28 08:45:00,
2013-08-28 05:00:00,65.4,65.0,29.82,East,90,0.0,0.0,98,0.00,,,0.00,weatherlink.com 1.10,2013-08-28 09:00:00,
2013-08-28 05:15:00,65.5,65.0,29.82,ESE,113,0.0,2.0,98,0.00,,,0.00,weatherlink.com 1.10,2013-08-28 09:15:00,
2013-08-28 05:30:00,65.3,65.0,29.82,ESE,113,0.0,1.0,98,0.00,,,0.00,weatherlink.com 1.10,2013-08-28 09:30:00,
2013-08-28 05:45:00,65.3,65.0,29.83,ESE,113,0.0,0.0,98,0.00,,,0.00,weatherlink.com 1.10,2013-08-28 09:45:00,
2013-08-28 06:00:00,65.1,65.0,29.82,ESE,113,0.0,0.0,98,0.00,,,0.00,weatherlink.com 1.10,2013-08-28 10:00:00,
2013-08-28 06:15:00,65.1,65.0,29.83,ESE,113,0.0,0.0,98,0.00,,,0.00,weatherlink.com 1.10,2013-08-28 10:15:00,
2013-08-28 06:30:00,65.2,65.0,29.83,ESE,113,0.0,1.0,98,0.00,,,0.00,weatherlink.com 1.10,2013-08-28 10:30:00,
2013-08-28 06:45:00,65.6,65.0,29.83,ESE,113,0.0,0.0,98,0.00,,,0.00,weatherlink.com 1.10,2013-08-28 10:45:00,
2013-08-28 07:00:00,65.6,65.0,29.84,ESE,113,0.0,0.0,98,0.00,,,0.00,weatherlink.com 1.10,2013-08-28 11:00:00,
2013-08-28 07:15:00,65.8,65.0,29.84,ESE,113,0.0,0.0,98,0.00,,,0.00,weatherlink.com 1.10,2013-08-28 11:15:00,
2013-08-28 07:30:00,66.1,66.0,29.84,ESE,113,0.0,0.0,99,0.00,,,0.00,weatherlink.com 1.10,2013-08-28 11:30:00,
2013-08-28 07:45:00,66.7,66.0,29.83,ESE,113,0.0,1.0,99,0.00,,,0.00,weatherlink.com 1.10,2013-08-28 11:45:00,
2013-08-28 08:00:00,67.2,67.0,29.83,East,86,0.0,1.0,99,0.00,,,0.00,weatherlink.com 1.10,2013-08-28 12:00:00,
2013-08-28 08:15:00,67.4,67.0,29.83,North,355,0.0,1.0,99,0.00,,,0.00,weatherlink.com 1.10,2013-08-28 12:15:00,
2013-08-28 08:30:00,68.0,68.0,29.83,West,263,0.0,0.0,99,0.00,,,0.00,weatherlink.com 1.10,2013-08-28 12:30:00,
2013-08-28 08:45:00,68.3,68.0,29.83,West,263,0.0,1.0,99,0.00,,,0.00,weatherlink.com 1.10,2013-08-28 12:45:00,
2013-08-28 09:00:00,68.4,68.0,29.84,West,262,0.0,0.0,99,0.00,,,0.00,weatherlink.com 1.10,2013-08-28 13:00:00,
2013-08-28 09:15:00,68.3,68.0,29.83,SSW,213,1.0,1.0,99,0.00,,,0.00,weatherlink.com 1.10,2013-08-28 13:15:00,
2013-08-28 09:30:00,68.7,68.0,29.83,ESE,111,1.0,3.0,99,0.00,,,0.00,weatherlink.com 1.10,2013-08-28 13:30:00,
2013-08-28 09:45:00,69.5,69.0,29.83,SE,136,0.0,2.0,99,0.00,,,0.00,weatherlink.com 1.10,2013-08-28 13:45:00,
2013-08-28 10:00:00,70.3,70.0,29.84,SW,225,0.0,4.0,99,0.00,,,0.00,weatherlink.com 1.10,2013-08-28 14:00:00,
2013-08-28 10:15:00,70.8,70.0,29.84,West,261,1.0,3.0,98,0.00,,,0.00,weatherlink.com 1.10,2013-08-28 14:15:00,
2013-08-28 10:30:00,71.2,71.0,29.85,West,270,0.0,3.0,98,0.00,,,0.00,weatherlink.com 1.10,2013-08-28 14:30:00,
2013-08-28 10:45:00,71.5,71.0,29.86,SW,219,2.0,4.0,97,0.00,,,0.00,weatherlink.com 1.10,2013-08-28 14:45:00,
2013-08-28 11:00:00,71.1,70.0,29.86,West,259,3.0,11.0,96,0.07,,,0.07,weatherlink.com 1.10,2013-08-28 15:00:00,
2013-08-28 11:15:00,70.6,70.0,29.87,NNE,32,1.0,2.0,96,0.42,,,0.42,weatherlink.com 1.10,2013-08-28 15:15:00,
2013-08-28 11:30:00,70.2,69.0,29.85,East,93,0.0,2.0,97,0.56,,,0.56,weatherlink.com 1.10,2013-08-28 15:30:00,
2013-08-28 11:45:00,69.8,69.0,29.85,East,86,0.0,2.0,97,0.65,,,0.65,weatherlink.com 1.10,2013-08-28 15:45:00,
2013-08-28 12:00:00,69.5,69.0,29.85,East,87,0.0,1.0,97,0.61,,,0.69,weatherlink.com 1.10,2013-08-28 16:00:00,
2013-08-28 12:15:00,69.5,69.0,29.84,East,87,0.0,0.0,97,0.30,,,0.73,weatherlink.com 1.10,2013-08-28 16:15:00,
2013-08-28 12:30:00,69.5,69.0,29.84,East,87,0.0,1.0,97,0.18,,,0.75,weatherlink.com 1.10,2013-08-28 16:30:00,
2013-08-28 12:45:00,69.7,69.0,29.84,South,171,0.0,1.0,98,0.11,,,0.76,weatherlink.com 1.10,2013-08-28 16:45:00,
2013-08-28 13:01:00,70.2,70.0,29.84,South,171,0.0,1.0,98,0.08,,,0.77,weatherlink.com 1.10,2013-08-28 17:01:00,
2013-08-28 13:15:00,70.4,70.0,29.83,South,171,0.0,1.0,98,0.06,,,0.79,weatherlink.com 1.10,2013-08-28 17:15:00,
2013-08-28 13:31:00,70.7,70.0,29.83,ESE,115,1.0,1.0,98,0.05,,,0.80,weatherlink.com 1.10,2013-08-28 17:31:00,
2013-08-28 13:46:00,71.0,70.0,29.84,NNW,344,1.0,2.0,98,0.05,,,0.81,weatherlink.com 1.10,2013-08-28 17:46:00,
2013-08-28 14:01:00,71.9,72.0,29.84,South,184,0.0,2.0,99,0.05,,,0.82,weatherlink.com 1.10,2013-08-28 18:01:00,
2013-08-28 14:31:00,72.2,72.0,29.83,South,189,0.0,0.0,98,0.02,,,0.82,weatherlink.com 1.10,2013-08-28 18:31:00,
2013-08-28 14:46:00,72.5,72.0,29.83,South,189,0.0,0.0,98,0.01,,,0.82,weatherlink.com 1.10,2013-08-28 18:46:00,
2013-08-28 15:01:00,72.3,71.0,29.83,WSW,257,2.0,3.0,97,0.01,,,0.83,weatherlink.com 1.10,2013-08-28 19:01:00,
2013-08-28 15:16:00,72.3,71.0,29.82,WSW,257,0.0,2.0,97,0.03,,,0.85,weatherlink.com 1.10,2013-08-28 19:16:00,
2013-08-28 15:31:00,72.5,71.0,29.82,East,100,3.0,5.0,96,0.03,,,0.85,weatherlink.com 1.10,2013-08-28 19:31:00,
2013-08-28 15:46:00,71.9,71.0,29.82,ESE,103,1.0,6.0,96,0.04,,,0.86,weatherlink.com 1.10,2013-08-28 19:46:00,
2013-08-28 16:01:00,72.1,71.0,29.82,ESE,105,3.0,5.0,97,0.03,,,0.86,weatherlink.com 1.10,2013-08-28 20:01:00,
2013-08-28 16:16:00,72.3,71.0,29.82,SE,144,3.0,5.0,97,0.01,,,0.86,weatherlink.com 1.10,2013-08-28 20:16:00,
2013-08-28 16:31:00,72.6,71.0,29.82,SSE,161,1.0,5.0,96,0.01,,,0.86,weatherlink.com 1.10,2013-08-28 20:31:00,
2013-08-28 16:46:00,73.0,72.0,29.82,ESE,113,1.0,3.0,95,0.00,,,0.86,weatherlink.com 1.10,2013-08-28 20:46:00,
2013-08-28 17:01:00,73.0,72.0,29.82,ESE,103,0.0,2.0,95,0.00,,,0.86,weatherlink.com 1.10,2013-08-28 21:01:00,
2013-08-28 17:16:00,73.1,71.0,29.81,ESE,105,0.0,2.0,94,0.00,,,0.86,weatherlink.com 1.10,2013-08-28 21:16:00,
2013-08-28 17:31:00,73.3,72.0,29.82,ESE,105,0.0,0.0,95,0.00,,,0.86,weatherlink.com 1.10,2013-08-28 21:31:00,
2013-08-28 17:46:00,73.5,72.0,29.82,ESE,105,0.0,0.0,95,0.00,,,0.86,weatherlink.com 1.10,2013-08-28 21:46:00,
2013-08-28 18:01:00,73.5,72.0,29.82,ESE,105,0.0,0.0,94,0.00,,,0.86,weatherlink.com 1.10,2013-08-28 22:01:00,
2013-08-28 18:16:00,73.6,72.0,29.81,ESE,105,0.0,0.0,95,0.00,,,0.86,weatherlink.com 1.10,2013-08-28 22:16:00,
2013-08-28 18:31:00,73.6,72.0,29.82,ESE,102,0.0,2.0,95,0.00,,,0.86,weatherlink.com 1.10,2013-08-28 22:31:00,
2013-08-28 18:46:00,73.4,72.0,29.82,ESE,102,0.0,1.0,95,0.00,,,0.86,weatherlink.com 1.10,2013-08-28 22:46:00,
2013-08-28 19:01:00,73.2,72.0,29.82,ESE,102,0.0,1.0,95,0.00,,,0.86,weatherlink.com 1.10,2013-08-28 23:01:00,
2013-08-28 19:16:00,72.8,72.0,29.82,East,101,0.0,2.0,96,0.00,,,0.86,weatherlink.com 1.10,2013-08-28 23:16:00,
2013-08-28 19:31:00,72.5,71.0,29.82,East,101,0.0,0.0,95,0.00,,,0.86,weatherlink.com 1.10,2013-08-28 23:31:00,
2013-08-28 19:46:00,72.1,71.0,29.82,East,101,0.0,0.0,95,0.00,,,0.86,weatherlink.com 1.10,2013-08-28 23:46:00,
2013-08-28 20:01:00,71.7,70.0,29.82,East,101,0.0,0.0,95,0.00,,,0.86,weatherlink.com 1.10,2013-08-29 00:01:00,
2013-08-28 20:16:00,71.0,70.0,29.82,East,101,0.0,1.0,96,0.00,,,0.86,weatherlink.com 1.10,2013-08-29 00:16:00,
2013-08-28 20:31:00,70.7,70.0,29.81,East,99,2.0,2.0,96,0.00,,,0.86,weatherlink.com 1.10,2013-08-29 00:31:00,
2013-08-28 20:46:00,70.2,69.0,29.82,East,99,0.0,0.0,96,0.00,,,0.86,weatherlink.com 1.10,2013-08-29 00:46:00,
2013-08-28 21:01:00,69.7,69.0,29.84,East,99,0.0,1.0,97,0.00,,,0.86,weatherlink.com 1.10,2013-08-29 01:01:00,
2013-08-28 21:16:00,69.4,69.0,29.85,East,99,0.0,1.0,97,0.00,,,0.86,weatherlink.com 1.10,2013-08-29 01:16:00,
2013-08-28 21:31:00,69.2,68.0,29.85,East,99,1.0,1.0,97,0.00,,,0.86,weatherlink.com 1.10,2013-08-29 01:31:00,
2013-08-28 21:46:00,69.0,68.0,29.86,East,92,0.0,1.0,97,0.00,,,0.86,weatherlink.com 1.10,2013-08-29 01:46:00,
2013-08-28 22:01:00,68.9,68.0,29.86,ESE,113,0.0,1.0,98,0.00,,,0.86,weatherlink.com 1.10,2013-08-29 02:01:00,
2013-08-28 22:16:00,68.7,68.0,29.85,ESE,113,0.0,1.0,98,0.00,,,0.86,weatherlink.com 1.10,2013-08-29 02:16:00,
2013-08-28 22:31:00,68.6,68.0,29.86,ESE,113,0.0,1.0,98,0.00,,,0.86,weatherlink.com 1.10,2013-08-29 02:31:00,
2013-08-28 22:46:00,68.6,68.0,29.86,ESE,120,1.0,3.0,98,0.00,,,0.86,weatherlink.com 1.10,2013-08-29 02:46:00,
2013-08-28 23:01:00,69.1,69.0,29.86,ESE,104,1.0,3.0,98,0.01,,,0.87,weatherlink.com 1.10,2013-08-29 03:01:00,
2013-08-28 23:16:00,69.7,69.0,29.86,SE,136,0.0,3.0,98,0.01,,,0.87,weatherlink.com 1.10,2013-08-29 03:16:00,
2013-08-28 23:31:00,69.7,69.0,29.87,SE,135,0.0,1.0,98,0.01,,,0.87,weatherlink.com 1.10,2013-08-29 03:31:00,
2013-08-28 23:46:00,69.5,69.0,29.87,SE,135,0.0,0.0,98,0.01,,,0.87,weatherlink.com 1.10,2013-08-29 03:46:00,